Regional Weather Roundup
Issued by NWS

Home | Current Version | Previous Version | Text Only | Print | Product List | Glossary Off
Versions: 1 2 3 4 5 6 7 8 9 10 11 12 13 14 15 16 17 18 19 20 21 22 23 24 25 26 27 28 29 30 31 32 33 34 35 36 37 38 39 40 41 42 43 44 45 46 47 48 49 50

000
ASUS43 KLOT 260709
RWRIL

ILLINOIS REGIONAL WEATHER ROUNDUP
NATIONAL WEATHER SERVICE CHICAGO/ROMEOVILLE IL
200 AM CDT WED JUL 26 2017

NOTE: "FAIR" INDICATES FEW OR NO CLOUDS BELOW 12,000 FEET WITH NO
SIGNIFICANT WEATHER AND/OR OBSTRUCTIONS TO VISIBILITY.

* THESE STATIONS ARE NOT UNDER NWS QUALITY CONTROL. THEY ALSO MAY NOT
  REPORT WEATHER SUCH AS PRECIPITATION OR FOG.

ILZ001-002-007-009-015-016-024-260800-
NORTHWEST ILLINOIS

CITY           SKY/WX    TMP DP  RH WIND       PRES   REMARKS
MOLINE         MOCLDY    71  66  84 S7        30.08F
STERLING*      MOCLDY    67  63  87 SE5       30.11F
SAVANNA*       CLOUDY    68  64  85 S7        30.09F
$$

ILZ003-004-008-010-011-017-018-260800-
NORTH CENTRAL ILLINOIS

CITY           SKY/WX    TMP DP  RH WIND       PRES   REMARKS
ROCKFORD       CLOUDY    67  61  81 S5        30.12S
FREEPORT*      CLOUDY    66  62  87 S8        30.12F
ROCHELLE*      CLOUDY    64  62  95 S5        30.13S
DE KALB*       CLOUDY    64  61  91 S7        30.14S
PERU*          CLOUDY   N/A N/A N/A S8        30.13S
$$

ILZ005-006-012>014-019>023-260800-
NORTHEAST ILLINOIS

CITY           SKY/WX    TMP DP  RH WIND       PRES   REMARKS
CHICAGO-OHARE  MOCLDY    69  58  67 S8        30.14R
CHICAGO-MIDWAY CLOUDY    71  59  65 S7        30.13R
AURORA         PTCLDY    64  61  90 CALM      30.15R
LANSING*       CLOUDY    66  58  75 S3        30.14R
JOLIET*        PTCLDY    67  61  79 CALM      30.14R
WAUKEGAN       CLOUDY    69  59  70 S7        30.12S
DUPAGE AIRPORT CLOUDY    65  60  84 CALM      30.14R
KANKAKEE*      CLEAR     63  61  94 SE3       30.14S
WHEELING       CLOUDY    68  61  78 S6        30.14R
MORRIS*        PTCLDY    65  60  83 CALM      30.13R
ROMEOVILLE*    PTCLDY    65  58  77 S6        30.14R
NORTHERLY ISL    N/A     70  57  63 SE5         N/A
$$

LMZ740>746-260800-
SOUTHERN LAKE MICHIGAN

STATION/POSITION SKY/WX   TEMP    WIND        PRES    VSBY  WAVE
                          AIR SEA DIR/SP/G                  HT/PER
                          (F)     (DEG/KT/KT) (MB)    (MI)  (FT/S)
SOUTHERN BUOY              73 71  160/ 12/ 14 1019.7          1/ 3
WILMETTE HARBOR            72 72  160/ 10/ 14   N/A           2/ 3
HARRISON CRIB              73     170/ 13/ 16   N/A
BURNHAM HARBOR             70                   N/A
CALUMET HARBOR             71     170/  6/ 11 1019.9R
BURNS HARBOR               70     170/  7/ 16 1020.7
MICHIGAN CITY              69     150/  8/  9   N/A
MICHIGAN CITY 6N           70 74  160/ 12/ 14   N/A           1
ST. JOSEPH                 68 72  180/  8/ 10 1020.9          1
$$

ILZ025>027-034>036-040-047-049-050-058-095>099-260800-
WEST-CENTRAL ILLINOIS

CITY           SKY/WX    TMP DP  RH WIND       PRES   REMARKS
QUINCY         CLOUDY    73  69  87 SE7       30.08F
GALESBURG*     PTCLDY    69  66  91 SE3       30.12S
MACOMB*        MOCLDY    68  67  96 SE3       30.12S
JACKSONVILLE*  CLEAR     71  67  89 SE8       30.10R
PITTSFIELD*    PTCLDY    72  70  93 E3        30.10S
$$

ILZ028>032-037-038-041>044-048-051>054-059>061-260800-
CENTRAL ILLINOIS

CITY           SKY/WX    TMP DP  RH WIND       PRES   REMARKS
PONTIAC        PTCLDY    64  63  98 CALM      30.14R
BLOOMINGTON    CLEAR     66  61  84 S7        30.15R
DECATUR        CLEAR     67  64  90 E3        30.13R
PEORIA         MOCLDY    71  66  84 SE5       30.12R
LACON*         MOCLDY    66  64  92 CALM      30.11F
LINCOLN*       CLEAR     68  67  96 CALM      30.13R
SPRINGFIELD    CLEAR     73  68  84 SE7       30.11R
TAYLORVILLE    CLEAR     70  67  89 SE3       30.11R
$$

ILZ033-039-045-046-055>057-062-063-260800-
EAST-CENTRAL ILLINOIS

CITY           SKY/WX    TMP DP  RH WIND       PRES   REMARKS
CHAMPAIGN      CLEAR     63  60  90 E5        30.13S
RANTOUL*       CLEAR     65  63  90 CALM      30.14S
MATTOON        CLEAR     67  65  93 SE5       30.11S
PARIS*         CLEAR     63  62  97 CALM      30.14S
$$

ILZ079-100>102-260800-
SOUTHWEST ILLINOIS

CITY           SKY/WX    TMP DP  RH WIND       PRES   REMARKS
ALTON          CLOUDY    72  71  98 NE3       30.09R
BELLEVILLE     PTCLDY    75  70  85 CALM      30.09R
CAHOKIA*       CLOUDY    78  69  73 SE7       30.07S HX  80
SPARTA*        PTCLDY    75  71  88 E6        30.09R
$$

ILZ064>066-069>071-074>076-080>082-084>086-088>090-092>094-260800-
SOUTH-CENTRAL ILLINOIS

CITY           SKY/WX    TMP DP  RH WIND       PRES   REMARKS
CARBONDALE     CLOUDY    75  74  96 CALM      30.07F
CAIRO*         CLEAR     74  74  98 CALM      30.07S FOG
EFFINGHAM*     PTCLDY    69  69  98 E3        30.13R
MARION         PTCLDY    77  77 100 CALM      30.08F
MT. VERNON     PTCLDY    74  69  85 E3        30.09F
CENTRALIA*     MOCLDY    74  71  88 CALM      30.09S
SALEM*         MOCLDY    75  69  79 E3        30.10S
METROPOLIS*    CLEAR     75  73  94 CALM      30.07F
$$

ILZ067-068-072-073-078-083-087-091-260800-
SOUTHEAST ILLINOIS

CITY           SKY/WX    TMP DP  RH WIND       PRES   REMARKS
LAWRENCEVILLE  PTCLDY    70  65  84 E3        30.12S
FLORA*         PTCLDY    73  68  84 E3        30.10F
FAIRFIELD*     PTCLDY    73  69  89 CALM      30.09S
HARRISBURG*    PTCLDY    73  72  95 CALM      30.09S
ROBINSON*      PTCLDY    66  65  97 CALM      30.13R
CARMI*         CLOUDY    70  69  97 CALM      30.08F
$$

ABBREVIATIONS USED IN REMARKS
   TC - TEMPERATURE IN CELSIUS
  WCI - WIND CHILL INDEX
   HX - HEAT INDEX
  VSB - VISIBILITY
$$





USA.gov is the U.S. government's official web portal to all federal, state and local government web resources and services.